Dịch vụ đang nâng cấp, xin cảm ơn bạn!
<< > ... 201 202 203 204 205 ... 359 > >> Show 4041 - 4060 of 7176
STT Tên file Thể loại Kích thước Ngày
4041 Xem phim Tái Xuất - Tập full | Re: Born (2016).mp4 mp4 470.76 MB 2019-08-01
4042 Xem phim Re:Stage! Dream Days♪ - Tập 1.mp4 mp4 227.61 MB 2019-08-01
4043 Xem phim Tái Xuất - Tập full | Re: Born (2016).mp4 mp4 501.76 MB 2019-08-01
4044 Xem phim Tokyo Ghoul:re 2nd Season - Tập 12.mp4 mp4 163.76 MB 2019-08-01
4045 Xem phim Tokyo Ghoul:re 2nd Season - Tập 11.mp4 mp4 154.09 MB 2019-08-01
4046 Xem phim Tokyo Ghoul:re 2nd Season - Tập 9.mp4 mp4 151.61 MB 2019-08-01
4047 Xem phim Tokyo Ghoul:re 2nd Season - Tập 10.mp4 mp4 196.56 MB 2019-08-01
4048 Xem phim Tokyo Ghoul:re 2nd Season - Tập 8.mp4 mp4 200.40 MB 2019-08-01
4049 Xem phim Tokyo Ghoul:re 2nd Season - Tập 6.mp4 mp4 230.75 MB 2019-08-01
4050 Xem phim Tokyo Ghoul:re 2nd Season - Tập 7.mp4 mp4 199.69 MB 2019-08-01
4051 Xem phim Tokyo Ghoul:re 2nd Season - Tập 4.mp4 mp4 155.98 MB 2019-08-01
4052 Xem phim Tokyo Ghoul:re 2nd Season - Tập 5.mp4 mp4 151.88 MB 2019-08-01
4053 Xem phim Tokyo Ghoul:re 2nd Season - Tập 1.mp4 mp4 30.00 MB 2019-08-01
4054 Xem phim Tokyo Ghoul:re 2nd Season - Tập 2.mp4 mp4 122.98 MB 2019-08-01
4055 Xem phim Tokyo Ghoul:re 2nd Season - Tập 3.mp4 mp4 36.67 MB 2019-08-01
4056 [CFS] Tokyo Ghoul-re Season 2 Ep 1 (Preair).mp4 mp4 325.43 MB 2018-10-09
4057 [CFS] Tokyo Ghoul Re - 05 (MX 1280x720 x264 AAC).mp4 mp4 295.55 MB 2018-05-04
4058 [CFS] Tokyo Ghoul Re - 03 (MX 1280x720 x264 AAC).mp4 mp4 307.00 MB 2018-04-19
4059 [CFS] Tokyo Ghoul Re - 02 (MX 1280x720 x264 AAC).mp4 mp4 269.02 MB 2018-04-12
4060 Mywife-NO 00494 Yu Ishiguro Hatsu + re-Concert_2.MP4 MP4 726.00 MB 2018-02-07
Hỗ trợ
Chat ngay